Regional Weather Roundup
Issued by NWS

Home | Current Version | Previous Version | Graphics & Text | Print | Product List | Glossary On
Versions: 1 2 3 4 5 6 7 8 9 10 11 12 13 14 15 16 17 18 19 20 21 22 23 24 25 26 27 28 29 30 31 32 33 34 35 36 37 38 39 40 41 42 43 44 45 46 47 48 49 50
000
ASUS43 KOAX 232302
RWRNE

WEATHER ROUNDUP FOR NEBRASKA
NATIONAL WEATHER SERVICE OMAHA NE
600 PM CDT SAT MAY 23 2015

NOTES: SATELLITE DATA IS BEING USED TO AUGMENT CLOUD COVER ABOVE
       12000 FEET.
       "FAIR" INDICATES FEW OR NO CLOUDS BELOW 12,000 FEET WITH NO
       SIGNIFICANT WEATHER AND/OR OBSTRUCTIONS TO VISIBILITY.

  * THESE STATIONS DO NOT REPORT WEATHER SUCH AS RAIN...SNOW OR FOG.

NEZ001>004-019>022-054>056-240000-
NEBRASKA PANHANDLE

CITY           SKY/WX    TMP DP  RH WIND       PRES   REMARKS
SCOTTSBLUFF    LGT RAIN  55  54  96 E15       29.94S
ALLIANCE       LGT RAIN  54  53  97 E13       29.95F
CHADRON        CLOUDY    58  53  84 SE12      29.96F
SIDNEY         PTSUNNY   57  51  80 E13       29.93S
$$

NEZ057>060-069>072-079>082-240000-
SOUTHWEST NEBRASKA

CITY           SKY/WX    TMP DP  RH WIND       PRES   REMARKS
NORTH PLATTE   CLOUDY    60  55  83 E14       29.97F
IMPERIAL       PTSUNNY   64  53  67 SE12      29.91F
LEXINGTON      CLOUDY    60  57  92 E17       29.97F
MCCOOK         CLOUDY    65  55  70 SE17      29.93S
$$

NEZ005>010-023>029-035>040-094-240000-
NORTH CENTRAL NEBRASKA

CITY           SKY/WX    TMP DP  RH WIND       PRES   REMARKS
VALENTINE      CLOUDY    57  54  89 SE12      30.03R
AINSWORTH      LGT RAIN  56  55  98 SE13      30.04S
BROKEN BOW     CLOUDY    59  55  87 E10       30.00F
ORD            CLOUDY    59  54  83 E12       30.00F
$$

NEZ041-046>049-061>064-073>077-083>087-240000-
SOUTH CENTRAL NEBRASKA

CITY           SKY/WX    TMP DP  RH WIND       PRES   REMARKS
GRAND ISLAND   CLOUDY    61  55  81 E15       30.01F
AURORA         CLOUDY    61  59  93 E16       30.01F
HASTINGS       CLOUDY    60  56  86 E14       29.98F
KEARNEY *      CLOUDY    59  55  88 E15G21    29.98F
$$

NEZ011>018-030>034-042>045-240000-
NORTHEAST NEBRASKA

CITY           SKY/WX    TMP DP  RH WIND       PRES   REMARKS
NORFOLK        CLOUDY    60  55  83 SE12      30.07F
ALBION         CLOUDY    60  54  80 SE9       30.05F
BLAIR          CLOUDY    63  56  78 E5        30.09F
COLUMBUS *     CLOUDY    61  52  72 SE10      30.10F
FREMONT        CLOUDY    63  57  82 E6        30.09F
TEKAMAH        CLOUDY    64  57  78 SE7       30.10F
$$

NEZ050>053-065>068-078-088>093-240000-
SOUTHEAST NEBRASKA

CITY           SKY/WX    TMP DP  RH WIND       PRES   REMARKS
LINCOLN        LGT RAIN  62  60  93 SE7       30.07F FOG
OMAHA EPPLEY   CLOUDY    65  58  78 NE3       30.09F
BEATRICE       CLOUDY    61  60  96 E6        30.03F
FALLS CITY     LGT RAIN  64  60  87 SE7       30.08S FOG
NEBRASKA CITY  LGT RAIN  62  61  99 CALM      30.09F
PLATTSMOUTH    LGT RAIN  63  59  86 S5        30.10F
$$

NEZ044-045-051>053-067-240000-
OMAHA AREA

CITY           SKY/WX    TMP DP  RH WIND       PRES   REMARKS
OMAHA EPPLEY   CLOUDY    65  58  78 NE3       30.09F
BLAIR          CLOUDY    63  56  78 E5        30.09F
FREMONT        CLOUDY    63  57  82 E6        30.09F
OFFUTT AFB     CLOUDY    65  59  81 E2        30.08F
PLATTSMOUTH    LGT RAIN  63  59  86 S5        30.10F
WAHOO          CLOUDY    63  59  87 SE9       30.08F
$$


USA.gov is the U.S. government's official web portal to all federal, state and local government web resources and services.